Wind_Speed
12 11 11 9 8 8 7 7 7 6 6 6 6 6 6 7 7 7 7 7 6 5 5 4 3 4 5 7 8 10 10 8 10 9 11 13 17 19 21 20 20 18 17 14 14
14 13 13 12 12 11 10 10 10 10 10 11 10 10 11 11 12 11 14 12 11 10 9 10 9 9 10 11 12 13 16 10 11 12 16 17 19 22 24 21 22 21 18 19 19
16 15 15 14 14 14 14 13 14 14 14 14 14 14 14 14 14 14 14 16 16 15 13 14 13 13 14 17 14 19 18 13 14 17 19 19 21 24 24 23 18 21 22 23 22
17 17 17 16 16 16 16 16 16 17 17 17 17 18 17 17 10 9 8 10 15 18 17 18 19 18 19 21 19 26 22 19 19 19 21 20 22 25 27 23 25 24 24 25 23
20 20 19 19 18 18 18 18 19 19 20 21 21 21 21 21 15 18 19 18 19 20 21 22 23 21 24 23 22 29 27 25 25 26 23 23 26 28 25 15 17 21 24 23 21
23 23 23 22 22 21 21 21 21 22 22 24 24 25 25 26 21 19 20 19 20 21 21 23 24 24 27 29 27 31 33 30 30 28 25 31 27 25 22 15 19 22 23 22 24
26 26 25 25 24 24 24 24 24 25 24 26 27 28 29 25 26 25 24 24 25 25 26 25 26 27 28 31 32 32 32 32 34 33 31 26 35 36 23 25 27 23 24 26 28
27 26 26 26 26 26 27 26 27 28 28 28 29 31 34 30 28 27 26 27 28 29 30 31 31 29 30 32 36 36 37 40 38 38 34 32 43 38 32 32 33 30 29 29 31
27 27 27 27 27 27 27 28 29 31 32 33 34 34 37 32 28 23 22 23 24 27 30 33 34 32 31 37 36 40 40 45 45 44 39 35 44 42 39 40 37 37 37 36 35
26 26 26 27 26 26 27 27 28 29 30 32 35 35 34 27 22 20 22 23 25 28 30 32 32 32 33 40 34 45 43 43 43 44 47 43 51 50 44 45 44 46 44 42 39
25 25 25 26 25 25 24 26 27 29 30 30 31 33 34 33 35 33 32 32 33 34 34 33 37 38 37 39 43 45 45 47 45 42 50 54 57 55 51 53 54 49 45 43 41
24 23 22 22 23 23 24 25 28 31 35 32 33 38 32 32 37 34 34 37 39 40 36 42 50 46 41 43 44 44 47 49 53 48 50 55 61 58 57 57 54 51 46 40 38
24 24 22 22 22 22 21 21 24 28 37 40 36 40 35 35 40 36 38 41 45 45 45 51 50 42 40 43 41 51 47 54 55 50 50 54 66 62 52 47 44 42 39 36 34
28 27 25 25 24 23 23 23 24 28 37 36 18 18 12 15 26 22 28 40 46 48 47 44 44 41 39 44 43 58 49 52 48 39 33 34 41 49 56 50 44 38 31 23 28
32 29 26 24 24 25 27 28 27 26 8 13 11 9 10 12 14 17 18 21 33 37 39 42 38 38 36 41 30 45 36 41 42 44 41 26 19 36 36 38 28 13 15 27 19
30 31 30 31 29 29 29 29 27 20 11 9 10 12 15 19 22 22 18 22 23 27 32 37 36 41 39 37 40 34 32 34 38 35 19 24 25 51 17 15 15 25 31 28 31
36 37 40 36 34 29 28 26 20 15 9 9 12 17 19 15 16 17 20 22 23 25 35 38 41 40 34 33 35 37 36 8 5 3 13 19 26 50 38 37 28 30 40 36 34
35 37 39 37 35 32 25 23 23 19 29 24 25 24 31 28 30 26 30 33 32 34 39 31 42 33 33 31 33 32 34 21 7 10 23 29 23 40 37 34 40 32 26 31 35
40 39 45 38 34 33 28 33 36 34 33 31 31 31 36 30 27 27 32 37 35 31 35 28 46 42 42 39 34 34 28 39 30 36 8 33 45 52 39 14 19 21 18 24 26
43 45 48 38 35 32 31 47 41 41 41 28 29 26 31 28 24 25 28 25 19 24 26 33 30 45 34 28 35 36 34 17 14 5 8 22 25 38 37 27 19 24 19 24 18
36 37 42 33 31 32 44 48 48 50 42 38 39 35 43 39 29 26 26 33 28 23 21 28 25 45 35 34 35 33 36 37 30 22 12 16 25 44 42 42 31 22 36 37 29
34 36 36 34 28 37 43 45 47 50 46 35 38 44 44 47 40 33 32 26 23 39 41 32 23 24 47 42 30 29 32 38 28 20 27 22 24 57 52 63 56 46 28 20 24
34 35 35 31 35 38 43 43 43 43 44 46 42 42 41 42 39 38 39 45 46 43 37 35 33 31 27 40 45 57 50 39 41 42 39 26 32 52 57 64 49 56 54 49 47
32 34 35 36 42 42 42 42 45 47 43 44 39 41 43 45 51 51 52 48 48 39 49 45 46 45 32 39 36 20 37 42 46 40 41 43 49 58 64 60 51 60 69 68 60
27 32 34 28 32 39 40 44 45 45 45 45 42 43 44 42 45 52 44 44 43 47 46 41 50 50 59 59 55 61 62 61 53 58 54 63 60 55 65 66 67 76 69 72 70
29 30 32 35 36 34 38 46 43 46 40 40 39 42 38 36 44 47 50 42 46 43 30 27 31 48 54 63 69 65 65 68 68 68 72 64 59 69 72 71 80 71 59 60 57
31 31 33 37 38 39 43 40 36 32 38 39 42 40 39 39 45 45 38 42 38 45 54 53 45 43 38 28 43 39 52 64 74 68 61 57 69 52 52 51 51 53 54 47 44
Wind_Direction
273 278 283 285 286 284 279 279 280 277 279 273 261 256 253 253 250 247 248 244 234 230 236 242 247 257 258 257 262 266 266 274 289 277 296 300 298 304 299 293 291 290 293 296 292
269 273 276 280 282 282 282 282 280 278 275 272 269 264 260 259 259 254 254 252 252 249 252 257 257 265 270 271 270 266 271 285 279 284 290 287 288 298 295 294 288 295 299 290 284
266 268 271 272 274 275 278 279 279 279 278 278 275 270 267 265 265 268 262 261 257 254 257 262 265 271 275 275 280 275 276 282 275 284 288 286 290 289 291 285 298 293 291 282 278
266 267 267 266 268 270 271 273 274 277 278 280 281 280 275 270 273 254 248 257 259 252 259 266 269 271 276 282 284 282 284 286 286 285 285 289 286 292 288 296 292 290 286 282 281
268 269 271 272 272 271 271 271 272 273 275 275 277 278 278 273 274 267 267 268 267 262 262 266 269 271 273 276 280 278 285 285 289 288 285 287 294 290 287 326 297 288 281 285 283
270 271 271 272 273 274 274 272 272 272 273 276 277 278 277 275 280 277 271 269 266 266 267 266 268 268 269 273 274 279 280 283 283 282 286 297 295 275 299 311 297 293 288 282 288
273 272 272 272 273 272 273 274 274 273 274 275 276 276 273 277 275 275 275 274 272 270 269 270 270 265 269 274 274 276 278 278 278 284 287 292 283 282 299 301 295 291 290 278 285
273 274 275 275 274 274 275 274 275 276 275 274 275 276 275 277 274 275 275 274 272 270 269 266 264 261 262 269 268 273 276 277 288 289 291 290 285 291 295 297 298 294 297 287 280
273 274 274 274 275 275 275 275 274 273 275 276 275 276 281 282 281 276 274 271 269 268 265 263 261 259 261 264 265 267 266 273 285 291 288 279 285 287 295 298 294 294 294 292 284
274 275 276 276 277 278 278 278 277 275 274 274 274 276 276 282 276 271 272 268 270 268 264 262 262 258 262 258 252 271 266 279 284 286 288 286 284 291 291 293 292 292 293 292 291
272 274 277 280 280 279 279 284 283 283 276 274 271 272 275 275 278 278 275 272 268 267 269 274 265 260 273 279 285 283 279 278 280 283 283 283 285 289 291 290 290 288 290 290 287
272 277 282 285 287 287 286 285 285 285 283 278 278 279 280 280 273 272 272 268 268 269 270 268 266 276 282 279 279 277 278 277 283 286 284 288 286 287 287 288 290 291 288 287 288
273 277 280 284 286 287 289 293 296 294 292 286 286 282 281 272 267 264 261 262 266 268 268 268 271 278 275 275 275 275 275 281 283 291 286 287 284 286 289 288 290 292 294 292 297
270 271 274 279 281 283 287 289 293 302 301 301 279 273 273 267 262 271 267 261 260 264 269 274 277 276 276 271 273 274 284 284 285 285 283 290 292 288 291 292 293 298 299 298 304
268 271 272 275 282 282 282 285 288 297 299 292 245 241 260 249 273 266 264 262 260 264 266 270 274 272 270 277 278 279 283 280 281 284 290 288 268 292 291 289 303 315 296 306 295
266 273 270 272 273 275 275 278 286 287 254 267 243 243 251 265 270 271 269 273 280 279 274 277 279 274 277 283 277 274 272 273 278 280 273 282 254 292 281 295 304 304 297 297 297
276 276 272 271 276 268 265 273 273 231 251 266 255 253 258 266 271 283 288 286 286 292 287 285 280 281 283 279 272 264 262 273 269 191 254 279 259 265 284 295 300 298 300 295 290
267 266 273 272 274 275 274 270 239 260 238 249 257 253 266 271 285 281 273 274 276 286 284 282 292 283 280 278 289 278 257 220 209 256 274 276 256 275 287 291 302 299 303 290 289
267 266 269 269 268 271 259 251 242 250 266 255 251 265 271 273 268 275 272 273 269 263 265 273 273 278 280 283 279 273 249 270 245 255 286 268 272 279 286 278 296 296 335 310 273
262 265 263 265 262 256 250 248 247 256 258 249 255 267 268 270 260 265 274 268 248 254 248 253 266 276 279 276 266 259 265 247 209 201 249 268 271 270 284 276 274 291 307 316 322
266 264 264 263 259 251 244 247 257 260 256 259 259 258 274 275 276 266 248 263 266 258 261 265 256 264 277 269 270 268 250 247 252 245 253 260 269 274 277 279 279 282 309 309 296
264 260 265 263 252 251 249 247 252 254 255 262 260 271 268 275 277 266 264 261 274 279 277 266 264 254 267 261 261 250 261 256 241 246 249 256 259 275 284 280 278 287 306 281 284
260 260 255 252 245 247 254 260 262 259 261 261 262 264 264 270 272 269 263 273 276 282 257 277 275 278 270 282 271 250 248 253 255 255 243 244 259 278 286 284 280 271 293 296 282
256 257 255 246 247 250 252 256 252 263 265 267 264 268 269 268 268 269 271 273 281 257 279 281 268 253 253 254 260 240 249 254 261 255 258 249 257 271 276 279 276 287 294 297 296
257 255 251 249 251 249 249 251 254 257 257 262 267 261 274 269 276 272 267 273 273 272 279 274 261 258 263 260 255 261 266 265 254 260 257 261 262 262 272 269 278 285 289 293 293
262 255 250 254 255 251 252 253 256 255 260 263 260 269 257 267 264 285 287 286 277 284 299 277 296 270 261 261 263 259 261 262 260 263 262 262 263 268 270 266 283 288 291 291 292
261 256 254 254 253 250 254 251 253 256 259 258 264 261 264 266 267 269 272 271 274 280 276 284 286 290 283 285 295 287 282 273 261 268 264 265 273 278 276 275 278 287 287 287 284
Height
3192 3192 3192 3191 3191 3191 3190 3190 3189 3189 3189 3188 3188 3187 3187 3186 3186 3186 3185 3185 3184 3183 3182 3181 3181 3180 3179 3178 3177 3175 3174 3172 3171 3169 3168 3167 3166 3165 3164 3162 3160 3159 3158 3158 3157
3189 3189 3189 3189 3188 3188 3188 3188 3187 3187 3186 3186 3185 3185 3185 3184 3184 3184 3183 3182 3181 3181 3180 3179 3178 3178 3177 3176 3174 3173 3170 3170 3169 3167 3165 3164 3162 3161 3160 3158 3156 3155 3155 3154 3153
3185 3185 3185 3186 3186 3185 3185 3185 3185 3184 3183 3183 3182 3182 3181 3181 3181 3180 3180 3180 3179 3178 3178 3176 3176 3175 3174 3172 3172 3168 3167 3167 3166 3164 3162 3160 3158 3157 3155 3153 3154 3152 3151 3149 3148
3182 3181 3181 3181 3181 3181 3181 3181 3181 3180 3179 3179 3178 3178 3178 3178 3180 3177 3176 3176 3175 3175 3175 3173 3172 3172 3171 3168 3168 3163 3163 3163 3162 3161 3158 3157 3155 3152 3150 3148 3148 3148 3146 3144 3144
3178 3178 3177 3177 3177 3177 3177 3177 3176 3176 3175 3174 3173 3173 3174 3174 3176 3174 3173 3173 3173 3172 3171 3170 3168 3168 3166 3165 3164 3158 3158 3158 3156 3154 3154 3153 3151 3148 3144 3145 3143 3142 3140 3140 3139
3174 3173 3173 3173 3173 3173 3173 3172 3172 3171 3170 3169 3169 3168 3168 3169 3170 3170 3169 3169 3169 3168 3167 3166 3165 3164 3161 3159 3158 3155 3153 3152 3150 3149 3149 3146 3144 3142 3142 3143 3140 3138 3136 3135 3134
3169 3168 3168 3168 3168 3168 3168 3168 3167 3166 3166 3164 3163 3162 3161 3164 3163 3163 3164 3164 3163 3163 3161 3161 3160 3158 3157 3154 3151 3149 3147 3146 3142 3144 3142 3141 3135 3133 3139 3136 3134 3133 3131 3130 3128
3163 3162 3163 3162 3162 3162 3162 3161 3161 3160 3159 3158 3157 3155 3153 3157 3157 3157 3158 3157 3157 3156 3155 3153 3151 3151 3151 3150 3145 3144 3142 3138 3137 3136 3135 3135 3124 3127 3131 3128 3126 3125 3124 3123 3121
3157 3157 3156 3156 3156 3156 3156 3155 3155 3153 3153 3151 3150 3149 3147 3149 3150 3151 3151 3150 3149 3148 3147 3146 3144 3145 3147 3141 3139 3136 3131 3130 3130 3130 3128 3125 3118 3119 3120 3119 3116 3116 3115 3113 3111
3151 3151 3151 3150 3150 3151 3150 3149 3147 3146 3146 3144 3142 3144 3142 3143 3143 3144 3144 3144 3143 3141 3140 3138 3137 3138 3141 3135 3129 3128 3123 3125 3125 3125 3117 3114 3106 3111 3114 3110 3107 3105 3105 3103 3101
3145 3145 3145 3144 3144 3144 3145 3143 3143 3140 3138 3137 3135 3133 3133 3135 3136 3137 3137 3136 3135 3134 3134 3133 3128 3128 3133 3133 3129 3126 3122 3117 3118 3121 3111 3104 3097 3098 3103 3099 3096 3096 3095 3092 3091
3140 3140 3140 3139 3138 3138 3137 3136 3135 3132 3126 3128 3127 3122 3127 3127 3124 3128 3130 3129 3126 3126 3129 3125 3114 3122 3126 3124 3121 3119 3114 3110 3105 3112 3107 3097 3084 3087 3089 3087 3086 3085 3083 3081 3080
3134 3135 3136 3135 3134 3133 3132 3131 3129 3125 3117 3115 3117 3114 3117 3117 3111 3116 3119 3118 3117 3116 3118 3112 3113 3119 3118 3114 3115 3107 3108 3102 3099 3102 3098 3089 3066 3072 3075 3074 3077 3076 3074 3073 3069
3127 3127 3129 3129 3131 3128 3127 3126 3124 3121 3109 3105 3104 3103 3105 3104 3104 3105 3109 3111 3107 3107 3109 3102 3104 3105 3107 3105 3110 3092 3105 3100 3096 3096 3086 3089 3038 3060 3064 3062 3064 3065 3065 3063 3062
3121 3120 3122 3122 3122 3124 3123 3121 3120 3122 3110 3104 3100 3099 3099 3101 3101 3100 3100 3101 3100 3101 3102 3093 3096 3096 3093 3094 3102 3087 3098 3096 3092 3087 3081 3078 3076 3038 3053 3052 3053 3054 3056 3058 3057
3111 3111 3112 3115 3117 3118 3116 3115 3117 3119 3102 3099 3097 3097 3097 3095 3095 3095 3096 3097 3100 3095 3091 3088 3089 3087 3086 3087 3089 3089 3085 3088 3087 3085 3068 3074 3075 3012 3044 3048 3049 3051 3049 3048 3047
3102 3102 3103 3105 3108 3109 3109 3109 3112 3101 3096 3093 3091 3092 3093 3090 3089 3090 3089 3089 3092 3093 3086 3084 3079 3079 3083 3082 3080 3082 3080 3080 3081 3080 3062 3059 3059 3036 3046 3046 3045 3043 3041 3039 3037
3091 3092 3092 3093 3097 3099 3102 3104 3094 3085 3085 3088 3088 3084 3084 3085 3086 3086 3083 3082 3083 3085 3077 3076 3066 3074 3074 3077 3075 3074 3073 3070 3075 3062 3047 3052 3032 3027 3039 3039 3037 3036 3033 3030 3029
3081 3081 3081 3084 3086 3090 3093 3089 3076 3076 3078 3083 3085 3079 3072 3073 3080 3080 3076 3072 3074 3075 3076 3070 3061 3068 3070 3069 3072 3065 3061 3061 3054 3051 3049 3031 3023 3025 3030 3031 3027 3029 3026 3020 3016
3069 3071 3068 3075 3076 3079 3079 3068 3069 3070 3074 3075 3076 3075 3066 3066 3069 3071 3071 3062 3064 3066 3064 3059 3058 3054 3060 3061 3056 3058 3059 3054 3048 3049 3046 3029 3020 3012 3020 3023 3020 3020 3020 3017 3012
3058 3057 3054 3063 3064 3065 3060 3055 3060 3062 3066 3066 3065 3064 3062 3060 3059 3058 3056 3056 3058 3058 3058 3052 3051 3045 3047 3046 3048 3050 3046 3042 3038 3034 3025 3024 3015 3016 3014 3012 3014 3014 3016 3015 3013
3048 3047 3048 3049 3053 3050 3047 3048 3051 3051 3055 3056 3055 3055 3054 3052 3049 3049 3046 3048 3049 3056 3052 3047 3039 3036 3035 3038 3038 3035 3034 3034 3028 3021 3019 3014 3010 3000 3004 3003 3005 3007 3010 3009 3010
3036 3038 3040 3042 3037 3034 3037 3040 3040 3043 3043 3044 3045 3045 3047 3042 3039 3033 3034 3040 3040 3042 3039 3039 3034 3027 3025 3026 3021 3018 3017 3018 3015 3010 3000 2999 2993 2996 2995 2989 2987 2993 2995 2998 3001
3028 3030 3027 3026 3026 3027 3029 3029 3030 3034 3030 3035 3034 3033 3035 3032 3031 3021 3019 3025 3029 3030 3031 3029 3021 3015 3008 3007 3010 3007 3005 3006 3004 2999 2991 2986 2982 2985 2981 2979 2974 2981 2980 2982 2983
3018 3016 3014 3014 3012 3018 3022 3021 3022 3019 3021 3023 3022 3023 3023 3021 3018 3011 3014 3014 3017 3017 3017 3018 3004 3002 2992 2991 2995 2993 2994 2994 2987 2982 2977 2972 2971 2976 2975 2968 2967 2969 2972 2972 2969
3006 3007 3006 3005 3005 3008 3009 3009 3011 3010 3011 3009 3011 3014 3014 3007 3010 3004 3004 3004 3005 3003 3003 3002 2992 2988 2976 2977 2975 2974 2977 2975 2969 2965 2961 2960 2958 2964 2962 2961 2959 2958 2961 2961 2960
2996 2997 2995 2996 2998 2994 2997 3000 3002 3002 2998 3001 3001 2997 2998 3000 2997 2997 2995 2994 2992 2995 2995 2992 2989 2983 2972 2974 2968 2962 2965 2956 2951 2955 2955 2950 2946 2948 2945 2949 2948 2945 2940 2940 2939